TimeEST,TemperatureF,Dew PointF,Humidity,Sea Level PressureIn,VisibilityMPH,Wind Direction,Wind SpeedMPH,Gust SpeedMPH,PrecipitationIn,Events,Conditions,WindDirDegrees,DateUTC
12:51 AM,34.0,26.1,73,30.45,10.0,Calm,Calm,-,N/A,,Clear,0,2012-11-19 05:51:00
1:51 AM,37.9,28.0,68,30.44,10.0,ENE,3.5,-,N/A,,Clear,70,2012-11-19 06:51:00
2:51 AM,34.0,28.0,79,30.44,8.0,East,4.6,-,N/A,,Clear,100,2012-11-19 07:51:00
3:51 AM,34.0,27.0,75,30.42,9.0,East,3.5,-,N/A,,Clear,90,2012-11-19 08:51:00
4:51 AM,33.8,28.4,81,30.38,8.0,Calm,Calm,-,N/A,,Clear,0,2012-11-19 09:51:00
5:51 AM,33.1,28.0,82,30.44,7.0,Calm,Calm,-,N/A,,Clear,0,2012-11-19 10:51:00
6:51 AM,30.9,28.0,89,30.44,6.0,Calm,Calm,-,N/A,,Partly Cloudy,0,2012-11-19 11:51:00
7:51 AM,28.9,26.1,89,30.44,6.0,Calm,Calm,-,N/A,,Partly Cloudy,0,2012-11-19 12:51:00
8:51 AM,36.0,30.9,82,30.44,6.0,Calm,Calm,-,N/A,,Haze,0,2012-11-19 13:51:00
9:51 AM,39.9,32.0,73,30.43,8.0,Variable,3.5,-,N/A,,Mostly Cloudy,0,2012-11-19 14:51:00
10:51 AM,45.0,33.1,63,30.42,10.0,Calm,Calm,-,N/A,,Mostly Cloudy,0,2012-11-19 15:51:00
11:51 AM,48.9,33.1,54,30.39,10.0,Calm,Calm,-,N/A,,Overcast,0,2012-11-19 16:51:00
12:51 PM,50.0,34.0,54,30.35,10.0,ENE,3.5,-,N/A,,Overcast,70,2012-11-19 17:51:00
1:51 PM,52.0,32.0,47,30.34,10.0,NNW,3.5,-,N/A,,Overcast,340,2012-11-19 18:51:00
2:51 PM,52.0,28.9,41,30.33,10.0,Calm,Calm,-,N/A,,Overcast,0,2012-11-19 19:51:00
3:51 PM,51.1,30.9,46,30.32,10.0,Calm,Calm,-,N/A,,Overcast,0,2012-11-19 20:51:00
4:51 PM,50.0,30.9,48,30.32,10.0,Calm,Calm,-,N/A,,Overcast,0,2012-11-19 21:51:00
5:51 PM,46.0,30.9,56,30.31,10.0,North,3.5,-,N/A,,Overcast,360,2012-11-19 22:51:00
6:51 PM,43.0,32.0,65,30.31,10.0,Calm,Calm,-,N/A,,Overcast,0,2012-11-19 23:51:00
7:51 PM,42.1,32.0,67,30.29,10.0,Calm,Calm,-,N/A,,Overcast,0,2012-11-20 00:51:00
8:51 PM,39.9,32.0,73,30.28,10.0,Calm,Calm,-,N/A,,Overcast,0,2012-11-20 01:51:00
9:51 PM,39.9,32.0,73,30.27,10.0,NW,3.5,-,N/A,,Overcast,320,2012-11-20 02:51:00
10:51 PM,39.0,32.0,76,30.25,10.0,Calm,Calm,-,N/A,,Overcast,0,2012-11-20 03:51:00
11:51 PM,39.9,32.0,73,30.23,10.0,Calm,Calm,-,N/A,,Overcast,0,2012-11-20 04:51:00